Starlink 33817

operational
NORAD ID: 63583 Int'l Des: 2025-076 Owner: SPXS Country: US Constellation: starlink
LEOCIRCULAR

Über Starlink 33817

Beschreibung wird geladen...

Live-Position

3D-Globus wird geladen...

Nächste Überflüge

Höhenverlauf

Altitude vs Time

uPlot chart will show altitude changes over time

Zweizeiliger Elementsatz

1 63583U 25076Q 25304.48123256 .00035202 00000-0 12821-2 0 9998
2 63583 43.0013 331.0526 0001427 262.0169 98.0521 15.27592324 32064
Epoch: 31. Okt. 2025 • Age: 13 hours

Aktueller Status

Höhe 486.8 km
Geschwindigkeit 7.63 km/s
Subsatellitenpunkt 42.00°N, 5.44°W
Startdatum 14. Apr. 2025
Alter 0.5 years
Typ internet

Technische Details

Klassifizierung Payload
Masse 575.00 kg
Trockenmasse 530.00 kg
Gesamtmasse 575.00 kg
Länge 0.30 m
Durchmesser 4.10 m
Spannweite 29.00 m
Form Box + pan
Hersteller SPXS
Bus-Typ Starlink V2MO
Phasenstatus In Orbit
Besitzer/Staat SPXS/US

Große Konstellationen

Loading constellations...